HST,Max TemperatureF,Mean TemperatureF,Min TemperatureF,Max Dew PointF,MeanDew PointF,Min DewpointF,Max Humidity, Mean Humidity, Min Humidity, Max Sea Level PressureIn, Mean Sea Level PressureIn, Min Sea Level PressureIn, Max VisibilityMiles, Mean VisibilityMiles, Min VisibilityMiles, Max Wind SpeedMPH, Mean Wind SpeedMPH, Max Gust SpeedMPH,PrecipitationIn, CloudCover, Events, WindDirDegrees
2012-1-1,77,71,64,65,63,61,93,79,64,30.09,30.05,29.99,10,9,2,10,5,13,0.06,3,Rain,318
2012-1-2,81,72,63,67,64,61,93,76,58,30.12,30.07,30.03,10,10,10,15,7,20,0.00,1,,246
2012-1-3,79,72,64,68,65,60,93,80,67,30.21,30.15,30.07,10,10,7,15,7,18,0.00,3,,319
2012-1-4,79,73,67,69,67,63,93,80,67,30.26,30.21,30.17,10,10,6,14,8,18,0.05,5,,9
2012-1-5,80,77,73,70,67,63,87,77,67,30.27,30.21,30.14,10,10,10,17,11,22,0.02,5,Rain,59
2012-1-6,80,75,69,67,65,62,84,73,62,30.20,30.14,30.08,10,10,10,16,9,20,0.00,3,,44
2012-1-7,79,73,67,66,63,61,90,72,54,30.14,30.11,30.07,10,10,10,16,6,18,0.06,4,Rain,19
2012-1-8,79,72,64,66,62,59,87,70,52,30.14,30.09,30.05,10,10,10,10,5,13,T,5,Rain,302
2012-1-9,80,74,67,68,65,63,90,76,62,30.15,30.12,30.08,10,10,9,16,8,20,T,5,Rain,47
2012-1-10,79,75,71,66,64,62,84,71,58,30.12,30.07,30.03,10,10,9,16,10,20,0.04,3,Rain,68
2012-1-11,79,73,67,67,65,63,90,79,68,30.07,30.02,29.98,10,10,10,14,6,17,0.08,6,,60
2012-1-12,82,72,62,64,62,58,90,72,54,29.99,29.93,29.87,10,10,10,18,8,22,0.00,2,,265
2012-1-13,81,70,59,63,57,48,93,64,35,29.91,29.87,29.82,10,10,10,20,8,24,0.00,0,,265
2012-1-14,77,67,56,64,59,52,86,70,54,29.92,29.87,29.84,10,10,10,18,8,22,0.00,1,,225
2012-1-15,80,76,71,70,67,64,84,76,67,29.96,29.89,29.84,10,10,9,25,15,35,0.03,6,Rain,197
2012-1-16,81,78,74,72,71,70,93,84,74,29.98,29.93,29.88,10,10,9,26,19,38,0.02,7,Rain,187
2012-1-17,76,75,73,72,71,69,93,90,87,29.97,29.91,29.86,10,7,0,28,19,38,2.54,8,Fog-Rain-Thunderstorm,195
2012-1-18,79,76,73,73,70,68,93,86,79,30.07,29.98,29.94,10,10,4,22,12,30,0.35,6,Rain,199
2012-1-19,80,75,70,70,69,67,90,80,69,30.16,30.10,30.04,10,10,10,14,6,17,T,3,,161
2012-1-20,79,74,69,70,67,66,90,79,67,30.19,30.13,30.09,10,10,10,12,7,14,0.00,3,,67
2012-1-21,80,77,73,68,67,66,84,76,67,30.20,30.15,30.09,10,10,10,18,11,23,0.00,3,,61
2012-1-22,79,74,68,69,66,64,84,76,67,30.15,30.07,29.99,10,10,10,22,11,26,T,4,,83
2012-1-23,79,72,65,67,63,60,93,76,58,30.08,30.05,29.99,10,10,10,10,6,12,0.00,2,,278
2012-1-24,80,73,65,67,64,60,87,73,58,30.07,30.03,29.98,10,10,10,15,7,18,T,3,Rain,255
2012-1-25,80,75,69,70,67,66,93,80,67,30.05,30.00,29.94,10,10,8,15,7,17,0.04,6,Rain,192
2012-1-26,78,74,69,70,68,66,97,86,74,29.97,29.92,29.89,10,8,1,23,11,31,0.91,7,Rain,199
2012-1-27,79,72,65,70,66,63,93,81,69,30.09,29.99,29.92,10,10,10,14,6,16,0.00,1,,306
2012-1-28,79,73,67,68,66,64,93,80,67,30.17,30.10,30.04,10,10,7,17,11,20,0.00,2,,36
2012-1-29,79,76,72,66,64,63,79,70,60,30.20,30.16,30.13,10,10,10,21,17,25,T,3,Rain,59
2012-1-30,78,74,70,68,65,63,84,74,64,30.17,30.11,30.05,10,10,10,21,14,25,0.02,4,Rain,64
2012-1-31,79,75,70,65,64,63,79,71,62,30.06,30.02,29.96,10,10,9,17,9,20,T,5,Rain,79